Location: Mount Cross
(36.6390°N, 79.4878°W)
Time: 01:34:11
(UTC+00:00)

Vanguard 2 Rocket - Pass Details

Date: 22 March 2023
Orbit: 554 x 3314 km, 32.9° (Epoch: 08 June)

Event Time Altitude Azimuth Distance (km) Brightness Sun altitude
Exits shadow 09:14:46 26° 221° (SW) 5,027 10.1 -25.2°
Maximum altitude 09:14:48 26° 221° (SW) 5,027 10.1 -25.2°
Drops below altitude 10° 09:29:07 10° 174° (S) 6,001 10.9 -22.5°
Sets 09:34:43 0° 163° (SSE) 6,737 11.3 -21.4°
